Bar Harbor, ME

8:28 PM EDT on August 18, 2019 (GMT -0400)
Hancock County-Bar Harbor

Weather History for KBHB - June, 2019

Change the Weather History Date:

Tuesday, June 4, 2019

  Actual Average Record
Temperature  
Mean Temperature 52 °F -  
Max Temperature 62 °F 70 °F 79 °F (1963)
Min Temperature 43 °F 48 °F 35 °F (2002)
Degree Days  
Heating Degree Days 12    
Growing Degree Days 2 (Base 50)    
Moisture  
Dew Point 42 °F    
Average Humidity 65    
Maximum Humidity 86    
Minimum Humidity 38    
Precipitation  
Precipitation 0.00 in - - ()
Sea Level Pressure  
Sea Level Pressure 29.93 in    
Wind  
Wind Speed 6 mph (SW)    
Max Wind Speed 16 mph    
Max Gust Speed 23 mph    
Visibility 10 miles    
Events      
Averages and records for this station are not official NWS values.
T = Trace of Precipitation, MM = Missing Value Source: NWS Daily Summary

Daily Weather History Graph

Daily Weather History Graph

Search for Another Location

Airport or City:

Astronomy

Jun. 04, 2019 Rise Set
Actual Time 4:50 AM EDT 8:13 PM EDT
Civil Twilight 4:14 AM EDT 8:49 PM EDT
Nautical Twilight 3:27 AM EDT 9:36 PM EDT
Astronomical Twilight 2:28 AM EDT 10:35 PM EDT
Moon 5:57 AM EDT (6/4) 9:37 PM EDT (6/4)
Length of Visible Light 16h 34m
Length of Day
15h 22m
New Moon, 2% of the Moon is Illuminated
Jun 4
New Moon
Jun 10
First Quarter
Jun 17
Full
Jun 25
Last Quarter
Jul 2
New

Hourly Weather History & Observations

Time (EDT) Temp. Windchill Dew Point Humidity Pressure Visibility Wind Dir Wind Speed Gust Speed Precip Events Conditions
12:56 AM 48.0 °F - 37.0 °F 66% 29.88 in 10.0 mi WSW 4.6 mph - N/A   Clear
1:56 AM 46.0 °F - 37.9 °F 73% 29.89 in 10.0 mi Calm Calm - N/A   Clear
2:56 AM 45.0 °F 43.5 °F 39.0 °F 80% 29.90 in 10.0 mi WSW 3.5 mph - N/A   Clear
3:56 AM 43.0 °F - 39.0 °F 86% 29.92 in 10.0 mi Calm Calm - N/A   Mostly Cloudy
4:56 AM 46.9 °F - 39.9 °F 77% 29.93 in 10.0 mi WSW 3.5 mph - N/A   Overcast
5:56 AM 48.9 °F - 41.0 °F 74% 29.95 in 10.0 mi WSW 5.8 mph - N/A   Overcast
6:56 AM 52.0 °F - 42.1 °F 69% 29.96 in 10.0 mi Variable 5.8 mph - N/A   Clear
7:56 AM 55.0 °F - 42.1 °F 62% 29.96 in 10.0 mi West 10.4 mph - N/A   Clear
8:56 AM 55.9 °F - 41.0 °F 57% 29.96 in 10.0 mi West 12.7 mph - N/A   Clear
9:56 AM 59.0 °F - 39.9 °F 49% 29.95 in 10.0 mi WNW 12.7 mph 16.1 mph N/A   Partly Cloudy
10:56 AM 61.0 °F - 39.0 °F 44% 29.95 in 10.0 mi WNW 9.2 mph 19.6 mph N/A   Scattered Clouds
11:56 AM 60.1 °F - 37.9 °F 44% 29.95 in 10.0 mi West 9.2 mph - N/A   Mostly Cloudy
12:56 PM 62.1 °F - 37.0 °F 39% 29.94 in 10.0 mi SW 11.5 mph 18.4 mph N/A   Overcast
1:56 PM 62.1 °F - 36.0 °F 38% 29.93 in 10.0 mi WSW 9.2 mph - N/A   Mostly Cloudy
2:56 PM 59.0 °F - 44.1 °F 58% 29.92 in 10.0 mi SSW 15.0 mph 19.6 mph N/A   Overcast
3:56 PM 60.1 °F - 44.1 °F 55% 29.91 in 10.0 mi SSW 16.1 mph 23.0 mph N/A   Overcast
4:56 PM 57.9 °F - 45.0 °F 62% 29.92 in 10.0 mi SSW 11.5 mph - N/A   Overcast
5:56 PM 59.0 °F - 45.0 °F 60% 29.92 in 10.0 mi SSW 12.7 mph - N/A   Mostly Cloudy
6:56 PM 57.0 °F - 46.0 °F 67% 29.92 in 10.0 mi SSW 8.1 mph - N/A   Overcast
7:56 PM 54.0 °F - 46.0 °F 75% 29.93 in 10.0 mi SW 6.9 mph - N/A   Partly Cloudy
8:56 PM 50.0 °F - 45.0 °F 83% 29.93 in 10.0 mi South 6.9 mph - N/A   Clear
9:56 PM 50.0 °F - 45.0 °F 83% 29.94 in 10.0 mi South 5.8 mph - N/A   Clear
10:56 PM 50.0 °F - 45.0 °F 83% 29.94 in 10.0 mi SSE 4.6 mph - N/A   Overcast
11:56 PM 51.1 °F - 46.0 °F 83% 29.93 in 10.0 mi South 4.6 mph - N/A   Overcast